DW2537 Weather Reports


Display with metric or nautical units.
time (UTC)temp
F
wind
direction
speed
MPH
gust
MPH
rain 1hr
in
rain 24hr
in
rain mn
in
humidity
%
barometer
mb
20260905200045 80 71 0.0 4.0 0.00 0.00 0.00 70 1010.6
20260905194545 80 5 0.0 3.0 0.00 0.00 0.00 69 1010.6
20260905193040 81 113 0.0 7.0 0.00 0.00 0.00 68 1010.7
20260905191543 82 70 2.0 5.0 0.00 0.00 0.00 65 1010.9
20260905190056 81 267 1.0 6.0 0.00 0.00 0.00 68 1011.0
20260905184548 80 77 0.0 6.0 0.00 0.00 0.00 69 1011.1
20260905183039 80 41 0.0 6.0 0.00 0.00 0.00 66 1011.3
20260905181547 80 0 1.0 4.0 0.00 0.00 0.00 69 1011.5
20260905180044 80 106 0.0 4.0 0.00 0.00 0.00 72 1011.5
20260905175522 80 167 1.0 4.0 0.00 0.00 0.00 68 1011.6
20260905175026 80 116 0.0 3.0 0.00 0.00 0.00 69 1011.5
20260905174541 80 80 1.0 4.0 0.00 0.00 0.00 67 1011.6
20260905173044 80 109 0.0 2.0 0.00 0.00 0.00 72 1011.7
20260905171547 81 151 1.0 6.0 0.00 0.00 0.00 66 1011.7
20260905170049 81 16 0.0 3.0 0.00 0.00 0.00 68 1011.9
20260905164548 81 113 0.0 5.0 0.00 0.00 0.00 64 1011.8
20260905163044 81 150 1.0 6.0 0.00 0.00 0.00 70 1011.9
20260905161540 80 88 1.0 3.0 0.00 0.00 0.00 70 1012.2
20260905160052 80 65 1.0 3.0 0.00 0.00 0.00 69 1012.3
20260905154541 80 169 0.0 1.0 0.00 0.00 0.00 71 1012.4
20260905153058 80 0 0.0 1.0 0.00 0.00 0.00 71 1012.5
20260905151545 81 0 0.0 2.0 0.00 0.00 0.00 70 1012.5
20260905150046 81 0 0.0 5.0 0.00 0.00 0.00 67 1012.4
20260905144542 81 144 2.0 5.0 0.00 0.00 0.00 67 1012.2
20260905143048 80 54 2.0 6.0 0.00 0.00 0.00 65 1011.9
20260905141554 79 73 0.0 4.0 0.00 0.00 0.00 70 1011.9
20260905140042 79 53 2.0 8.0 0.00 0.00 0.00 67 1011.9
20260905134539 78 17 1.0 10.0 0.00 0.00 0.00 76 1012.0
20260905133042 77 44 1.0 4.0 0.00 0.00 0.00 78 1012.0
20260905131540 77 103 0.0 3.0 0.00 0.00 0.00 79 1012.0
20260905130041 76 126 1.0 4.0 0.00 0.00 0.00 85 1011.8
20260905124546 75 82 0.0 1.0 0.00 0.00 0.00 89 1011.7
20260905123042 74 0 0.0 4.0 0.00 0.00 0.00 90 1011.7
20260905121539 73 0 0.0 4.0 0.00 0.00 0.00 89 1011.8
20260905120039 72 0 0.0 2.0 0.00 0.00 0.00 95 1011.7
20260905114550 72 0 0.0 1.0 0.00 0.00 0.00 95 1011.4
20260905113039 72 0 0.0 0.0 0.00 0.00 0.00 95 1011.3
20260905111543 71 0 0.0 0.0 0.00 0.00 0.00 95 1011.0
20260905111020 71 0 0.0 0.0 0.00 0.00 0.00 95 1010.9
20260905110047 71 0 0.0 1.0 0.00 0.00 0.00 95 1011.0
20260905104552 71 0 0.0 1.0 0.00 0.00 0.00 95 1010.9
20260905103052 71 0 0.0 0.0 0.00 0.00 0.00 94 1010.4
20260905102021 71 0 0.0 1.0 0.00 0.00 0.00 94 1010.6
20260905101540 71 0 0.0 1.0 0.00 0.00 0.00 94 1010.6
20260905100055 71 0 0.0 0.0 0.00 0.00 0.00 94 1010.4
20260905094546 72 0 0.0 1.0 0.00 0.00 0.00 94 1010.3
20260905093040 72 0 0.0 1.0 0.00 0.00 0.00 94 1010.3
20260905092020 72 0 0.0 0.0 0.00 0.00 0.00 94 1010.3
20260905091545 72 0 0.0 0.0 0.00 0.00 0.00 94 1010.2
20260905084541 72 0 0.0 1.0 0.00 0.00 0.00 93 1010.2
20260905084030 72 0 0.0 1.0 0.00 0.00 0.00 93 1010.3
20260905083050 73 0 0.0 0.0 0.00 0.00 0.00 92 1010.4
20260905081552 73 0 0.0 1.0 0.00 0.00 0.00 92 1010.4
20260905080047 73 0 0.0 1.0 0.00 0.00 0.00 91 1010.5
20260905074539 73 0 0.0 2.0 0.00 0.00 0.00 91 1010.6
20260905074019 74 0 0.0 2.0 0.00 0.00 0.00 91 1010.5
20260905073051 74 0 0.0 2.0 0.00 0.00 0.00 91 1010.6
20260905071540 74 0 0.0 3.0 0.00 0.00 0.00 91 1010.7
20260905070053 74 0 0.0 1.0 0.00 0.00 0.00 91 1010.8
20260905064541 74 9 0.0 3.0 0.00 0.00 0.00 91 1011.1
20260905063522 74 0 0.0 3.0 0.00 0.00 0.00 91 1011.2
20260905063047 73 0 0.0 1.0 0.00 0.00 0.00 91 1011.2
20260905061544 74 148 0.0 2.0 0.00 0.00 0.00 92 1011.4
20260905061020 73 0 0.0 2.0 0.00 0.00 0.00 92 1011.3
20260905060519 74 0 0.0 3.0 0.00 0.00 0.00 92 1011.3
20260905060047 74 188 0.0 3.0 0.00 0.00 0.00 92 1011.4
20260905055519 74 0 0.0 1.0 0.00 0.00 0.00 92 1011.3
20260905055019 74 175 0.0 2.0 0.00 0.00 0.00 92 1011.3
20260905054541 74 0 0.0 2.0 0.00 0.00 0.00 93 1011.3
20260905053041 74 0 0.0 2.0 0.00 0.00 0.00 93 1011.7
20260905052020 74 154 0.0 2.0 0.00 0.00 0.00 93 1011.6
20260905051541 74 143 0.0 2.0 0.00 0.00 0.00 93 1011.7
20260905051021 74 279 0.0 2.0 0.00 0.00 0.00 92 1011.8
20260905050518 74 250 0.0 2.0 0.00 0.00 0.00 92 1012.0
20260905050040 74 0 0.0 3.0 0.00 0.00 0.00 92 1012.0
20260905045524 74 0 0.0 3.0 0.00 0.18 0.00 92 1012.1
20260905045021 74 0 0.0 3.0 0.00 0.18 0.00 92 1012.0
20260905044541 74 0 0.0 2.0 0.00 0.18 0.00 92 1012.1
20260905043040 75 0 0.0 3.0 0.00 0.18 0.00 92 1012.1
20260905042020 75 0 1.0 4.0 0.00 0.18 0.00 92 1012.0
20260905041539 75 185 1.0 4.0 0.00 0.18 0.00 93 1012.1
20260905041021 75 143 0.0 2.0 0.00 0.18 0.00 93 1012.1
20260905040519 75 186 0.0 1.0 0.00 0.18 0.00 93 1012.0
20260905040042 75 0 0.0 1.0 0.00 0.18 0.00 93 1012.0
20260905034539 75 0 0.0 1.0 0.00 0.18 0.18 92 1012.2
20260905033520 76 0 0.0 1.0 0.00 0.18 0.18 92 1012.4
20260905033038 76 0 0.0 1.0 0.00 0.18 0.18 92 1012.3
20260905032518 76 0 0.0 1.0 0.00 0.18 0.18 92 1012.3
20260905032021 76 0 0.0 1.0 0.00 0.18 0.18 92 1012.3
20260905031547 76 178 0.0 1.0 0.00 0.18 0.18 92 1012.3
20260905030039 76 0 0.0 2.0 0.00 0.18 0.18 92 1012.3
20260905024541 76 173 0.0 2.0 0.00 0.18 0.18 91 1012.3
20260905023040 77 208 0.0 2.0 0.00 0.18 0.18 92 1012.4
20260905021545 77 0 0.0 2.0 0.00 0.18 0.18 91 1012.1
20260905020041 77 0 0.0 1.0 0.00 0.18 0.18 91 1011.9
20260905015018 77 0 0.0 2.0 0.00 0.18 0.18 90 1012.0
20260905014540 77 0 0.0 2.0 0.00 0.18 0.18 90 1012.1
20260905013040 78 0 0.0 1.0 0.00 0.18 0.18 89 1011.9
20260905011548 78 0 0.0 2.0 0.00 0.18 0.18 88 1011.5
20260905010104 78 0 0.0 2.0 0.00 0.18 0.18 87 1011.3
20260905004546 79 0 0.0 1.0 0.00 0.18 0.18 86 1011.3
20260905003042 79 180 0.0 1.0 0.00 0.18 0.18 84 1011.5
20260905001547 79 0 0.0 2.0 0.00 0.18 0.18 82 1011.3
20260905001018 80 0 0.0 2.0 0.00 0.18 0.18 82 1011.3
20260905000055 80 180 0.0 2.0 0.00 0.18 0.18 81 1011.2
20260904235018 80 180 0.0 1.0 0.00 0.18 0.18 81 1011.3
20260904234540 80 0 0.0 1.0 0.00 0.18 0.18 80 1011.4
20260904234021 80 0 0.0 0.0 0.00 0.18 0.18 80 1011.4
20260904233520 81 0 0.0 0.0 0.00 0.18 0.18 80 1011.4
20260904233044 81 0 0.0 0.0 0.00 0.18 0.18 80 1011.3
20260904232522 81 0 0.0 2.0 0.00 0.18 0.18 80 1011.2
20260904232023 81 0 0.0 2.0 0.00 0.18 0.18 79 1011.4
20260904231547 81 0 0.0 2.0 0.00 0.18 0.18 77 1011.4
20260904230058 82 0 0.0 1.0 0.00 0.18 0.18 77 1011.5
20260904225019 82 0 0.0 1.0 0.00 0.18 0.18 77 1011.5
20260904224541 82 0 0.0 1.0 0.00 0.18 0.18 77 1011.4
20260904224020 83 0 0.0 1.0 0.00 0.18 0.18 76 1011.3
20260904223520 83 180 0.0 1.0 0.00 0.18 0.18 76 1011.3
20260904223049 83 0 0.0 1.0 0.00 0.18 0.18 76 1011.4
20260904222521 83 0 0.0 1.0 0.00 0.18 0.18 76 1011.4
20260904222019 83 0 0.0 1.0 0.00 0.18 0.18 76 1011.5
20260904221538 83 0 0.0 0.0 0.00 0.18 0.18 76 1011.6
20260904221020 83 0 0.0 1.0 0.00 0.18 0.18 75 1011.8
20260904220049 83 0 0.0 3.0 0.00 0.18 0.18 75 1011.9
20260904214540 83 0 0.0 2.0 0.00 0.18 0.18 75 1012.1
20260904214020 83 0 0.0 2.0 0.00 0.18 0.18 73 1012.1
20260904213519 84 0 0.0 2.0 0.00 0.18 0.18 74 1012.1
20260904213043 84 0 0.0 2.0 0.00 0.18 0.18 74 1012.1
20260904211544 85 164 0.0 4.0 0.00 0.18 0.18 70 1012.1
20260904210519 85 160 1.0 4.0 0.00 0.18 0.18 70 1012.3
20260904210046 85 186 0.0 2.0 0.00 0.18 0.18 69 1012.2
20260904205520 86 0 0.0 4.0 0.00 0.18 0.18 70 1012.1
20260904205019 86 0 0.0 4.0 0.00 0.18 0.18 69 1012.4
20260904204538 86 125 0.0 4.0 0.00 0.18 0.18 68 1012.5
20260904203038 87 0 1.0 4.0 0.00 0.18 0.18 66 1012.6
20260904202533 87 0 1.0 8.0 0.00 0.18 0.18 65 1012.7
20260904201549 88 43 1.0 8.0 0.00 0.18 0.18 65 1012.7